Sichem Singapore — 9HA4414 — position and weather

sailwx.info

Track history (hours):
 
Tides and Currents Weather Stations Pressure Air Temp Water Temp Dewpoint Dewpoint Depression Visibility Wind Speed Wind Dir Waves Ship Positions

Sichem Singapore

Last reported at 2017-Dec-11 04:01 UTC. Time now 2017-Dec-14 08:15 UTC.
Position N 38°43' E 008°38'.

Length 128 m; draft 8.1 m.

Type: Tanker. MMSI: 249880000.

Date/timePositionNaut miles runAvg speedWind from/ knotsBaromVisibWave heightAir tempDewpointWater temp
2017-Dec-11 04:01N 38°43' E 008°38'111.7
2017-Dec-11 03:58N 38°42' E 008°38'611.8
2017-Dec-11 03:30N 38°40' E 008°45'2912.1
2017-Dec-11 01:06N 38°31' E 009°20'112.4
2017-Dec-11 01:00N 38°30' E 009°22'31710.7
2017-Dec-09 19:16N 37°07' E 015°49'1411.4
2017-Dec-09 18:01N 37°19' E 015°60'1111.3
2017-Dec-09 17:05N 37°27' E 016°08'111.1
2017-Dec-09 16:59N 37°28' E 016°09'611.2
2017-Dec-09 16:26N 37°33' E 016°14'511.0
2017-Dec-09 15:57N 37°37' E 016°18'  
2017-Dec-01 18:38N 34°42' E 026°00'111.9
2017-Dec-01 18:30N 34°41' E 025°58'1811.9
2017-Dec-01 17:00N 34°39' E 025°37'912.9
2017-Dec-01 16:20N 34°39' E 025°26'1113.1
2017-Dec-01 15:31N 34°39' E 025°13'013.0
2017-Dec-01 15:30N 34°39' E 025°13'813.3
2017-Dec-01 14:55N 34°39' E 025°04'8711.4
2017-Dec-01 07:18N 34°48' E 023°18'1511.0
2017-Dec-01 05:57N 34°49' E 023°00'  
Track history (hours):
 
Tides and Currents Weather Stations Pressure Air Temp Water Temp Dewpoint Dewpoint Depression Visibility Wind Speed Wind Dir Waves Ship Positions

Sichem Singapore

Last reported at 2017-Dec-11 04:01 UTC. Time now 2017-Dec-14 08:15 UTC.
Position N 38°43' E 008°38'.

Length 128 m; draft 8.1 m.

Type: Tanker. MMSI: 249880000.

Date/timePositionNaut miles runAvg speedWind from/ knotsBaromVisibWave heightAir tempDewpointWater temp
2017-Dec-11 04:01N 38°43' E 008°38'111.7
2017-Dec-11 03:58N 38°42' E 008°38'611.8
2017-Dec-11 03:30N 38°40' E 008°45'2912.1
2017-Dec-11 01:06N 38°31' E 009°20'112.4
2017-Dec-11 01:00N 38°30' E 009°22'31710.7
2017-Dec-09 19:16N 37°07' E 015°49'1411.4
2017-Dec-09 18:01N 37°19' E 015°60'1111.3
2017-Dec-09 17:05N 37°27' E 016°08'111.1
2017-Dec-09 16:59N 37°28' E 016°09'611.2
2017-Dec-09 16:26N 37°33' E 016°14'511.0
2017-Dec-09 15:57N 37°37' E 016°18'  
2017-Dec-01 18:38N 34°42' E 026°00'111.9
2017-Dec-01 18:30N 34°41' E 025°58'1811.9
2017-Dec-01 17:00N 34°39' E 025°37'912.9
2017-Dec-01 16:20N 34°39' E 025°26'1113.1
2017-Dec-01 15:31N 34°39' E 025°13'013.0
2017-Dec-01 15:30N 34°39' E 025°13'813.3
2017-Dec-01 14:55N 34°39' E 025°04'8711.4
2017-Dec-01 07:18N 34°48' E 023°18'1511.0
2017-Dec-01 05:57N 34°49' E 023°00'  

Dump ship's entire track history